Location: Peebles
(55.6412°N, 3.1714°W)
Time: 16:01:46
(UTC+01:00)

OBJECT-B - Pass Details

Date: 26 September 2021
Orbit: 407 x 417 km, 96.9° (Epoch: 11 October)

Event Time Altitude Azimuth Distance (km) Brightness Sun altitude
Exits shadow 21:16:20 11° 203° (SSW) 1,414 3.4 -19.3°
Maximum altitude 21:18:58 29° 264° (W) 789 2.7 -19.7°
Drops below altitude 10° 21:21:48 10° 327° (NNW) 1,487 4.4 -20.0°
Sets 21:23:58 0° 339° (NNW) 2,354 5.3 -20.3°
